Weather in Hoofddorp

Netherlands     52°18′25″N   4°42′12″E
temp.,
°C
wind,
m/s
gust,
m/s
humid.,
%
clouds,
%
prec.,
mm/h
press.,
hPa
HPBL,
m
9 march, tue
tue901:00+5sw51092100 2.3 1018520
04:00+6wnw4992100 3.4 1017548
07:00+6wnw4891100 4.9 1016499
10:00+7nw588286 0.4 1017727
13:00+7nw467687 0.4 1017754
16:00+7nw3573100 0.0 1018697
19:00+5nw248095 0.0 1018393
22:00+5wnw238094 0.0 1019396
10 march, wed
wed1001:00+4wsw238279 0.0 1018309
04:00+3s258811 0.0 1018163
07:00+3ssw389456 0.0 1018314
10:00+6ssw5982100 0.0 1017572
13:00+8ssw61166100 0.0 10161121
16:00+8sw61166100 0.0 10141332
19:00+7ssw71378100 0.6 1012946
22:00+7ssw81580100 0.7 1009919
11 march, thu
thu1101:00+7ssw91785100 2.1 1005885
04:00+9ssw91886100 0.1 10011028
07:00+10ssw91988100 0.8 9981172
10:00+10sw92373100 3.6 9972007
13:00+11wsw12205950 3.6 9981976
16:00+10wsw11186033 0.2 9991901
19:00+8wsw9176467 1.3 10001684
22:00+7wsw91764100 0.7 10031570
12 march, fri
fri1201:00+6wsw8146950 0.8 10051349
04:00+5wsw6136614 0.0 10071058
07:00+5sw6136849 0.0 10071072
10:00+8sw91570100 0.2 10071551
13:00+8sw101875100 0.8 10051544
16:00+8wsw91563100 2.9 10041665
19:00+7wsw7136798 3.0 10061209
22:00+7wsw61367100 0.4 10071121
13 march, sat
sat1301:00+6wsw61273100 0.5 1007980
04:00+5sw6128150 0.0 1006790
07:00+6sw6138770 0.3 1004992
10:00+7sw91788100 3.4 10021358
13:00+8sw101984100 6.8 9991529
16:00+9wsw10186898 0.6 9981863
19:00+8wsw10196299 1.2 9982037
22:00+6wsw8176251 0.1 9991688